User: anonymous   Login
Location: Buckland
(65.9785°N, 161.1281°W)
Time: 06:47:37
(UTC+00:00)
Language:

SR - Orbit

View from above orbital plane
View from above orbital plane
View from above satellite
View from above satellite

Ground track
Ground track

The orbit data is extracted from the following two-line orbital elements,

1    46U 60007B   20331.49509565 +.00000191 +00000-0 +60852-4 0  9991
2    46 066.6903 328.6948 0208935 008.3810 352.0697 14.49335333162592
Epoch (UTC): 26 November 2020 11:52:56
Eccentricity: 0.0208935
inclination: 66.6903°
perigee height: 579 km
apogee height: 876 km
right ascension of ascending node: 328.6948°
argument of perigee: 8.3810°
revolutions per day: 14.49335333
mean anomaly at epoch: 352.0697°
orbit number at epoch: 16259

The dashed part of the orbit path shows where the satellite is in the earth's shadow,  

DLR